Weather History for Scappoose, OR

Change the Weather History Date:

Monday, September 2, 2013

  Actual Average Record
Temperature  
Mean Temperature 70 °F -  
Max Temperature 82 °F - 97 °F (2006)
Min Temperature 59 °F - 0 °F (2006)
Degree Days  
Heating Degree Days 0    
Month to date heating degree days 0  
Since 1 July heating degree days 24  
Cooling Degree Days 6    
Month to date cooling degree days 11  
Year to date cooling degree days 335  
Growing Degree Days 20 (Base 50)    
Moisture  
Dew Point 56 °F    
Average Humidity 60    
Maximum Humidity 84    
Minimum Humidity 36    
Precipitation  
Precipitation T in - 0.42 in (2000)
Month to date precipitation T  
Year to date precipitation 14.54  
Sea Level Pressure  
Sea Level Pressure 29.89 in    
Wind  
Wind Speed 3 mph (WNW)    
Max Wind Speed 15 mph    
Max Gust Speed 20 mph    
Visibility 10 miles    
Events      
T = Trace of Precipitation, MM = Missing Value Source: NWS Daily Summary

Daily Weather History Graph

Daily Weather History Graph

Search for Another Location

Airport:

Trip Planner

Search our weather history database for the weather conditions in past years. The results will help you decide how hot, cold, wet, or windy it might be!

Date:

Astronomy

Sep. 02, 2013 Rise Set
Actual Time 6:34 AM PDT 7:46 PM PDT
Civil Twilight 6:03 AM PDT 8:17 PM PDT
Nautical Twilight 5:26 AM PDT 8:54 PM PDT
Astronomical Twilight 4:47 AM PDT 9:33 PM PDT
Moon 3:51 AM PDT (9/2) 6:07 PM PDT (9/2)
Length of Visible Light 14h 14m
Length of Day
13h 12m
Waning Crescent, 7% of the Moon is Illuminated
Sep 2
Waning Crescent
Sep 5
New
Sep 12
First Quarter
Sep 19
Full
Sep 26
Last Quarter

Hourly Weather History & Observations

Time (PDT) Temp. Heat Index Dew Point Humidity Pressure Visibility Wind Dir Wind Speed Gust Speed Precip Events Conditions
12:53 AM 66.0 °F - 53.1 °F 63% 29.87 in 10.0 mi Calm Calm - N/A   Mostly Cloudy
1:53 AM 60.1 °F - 55.0 °F 83% 29.88 in 10.0 mi Calm Calm - N/A   Partly Cloudy
2:53 AM 63.0 °F - 55.9 °F 78% 29.89 in 10.0 mi Calm Calm - N/A   Mostly Cloudy
3:53 AM 62.1 °F - 55.0 °F 78% 29.88 in 10.0 mi Calm Calm - N/A   Overcast
4:53 AM 62.1 °F - 55.9 °F 80% 29.88 in 9.0 mi Calm Calm - N/A   Overcast
5:53 AM 62.1 °F - 55.9 °F 80% 29.88 in 10.0 mi Calm Calm - N/A   Overcast
6:53 AM 60.1 °F - 55.9 °F 86% 29.89 in 10.0 mi Calm Calm - N/A   Overcast
7:53 AM 66.0 °F - 55.9 °F 70% 29.89 in 10.0 mi Calm Calm - N/A   Clear
8:53 AM 69.1 °F - 55.9 °F 63% 29.89 in 10.0 mi Calm Calm - N/A   Scattered Clouds
9:53 AM 71.1 °F - 57.0 °F 61% 29.89 in 10.0 mi Calm Calm - N/A   Partly Cloudy
10:53 AM 73.9 °F - 57.9 °F 57% 29.88 in 10.0 mi Calm Calm - N/A   Clear
11:53 AM 73.0 °F - 59.0 °F 61% 29.90 in 10.0 mi WSW 12.7 mph 19.6 mph N/A   Overcast
12:53 PM 79.0 °F - 57.9 °F 48% 29.89 in 10.0 mi SW 10.4 mph - N/A   Unknown
1:53 PM 80.1 °F 80.2 °F 55.9 °F 43% 29.89 in 10.0 mi Variable 6.9 mph - N/A   Overcast
2:53 PM 79.0 °F - 55.9 °F 45% 29.88 in 10.0 mi Calm Calm - N/A   Overcast
3:53 PM 80.1 °F 80.1 °F 55.0 °F 42% 29.88 in 10.0 mi SSW 5.8 mph - N/A   Mostly Cloudy
4:53 PM 81.0 °F - 52.0 °F 36% 29.86 in 10.0 mi Calm Calm - N/A   Mostly Cloudy
5:53 PM 80.1 °F 80.0 °F 54.0 °F 40% 29.87 in 10.0 mi Variable 3.5 mph - N/A   Mostly Cloudy
6:53 PM 75.9 °F - 55.0 °F 48% 29.87 in 10.0 mi WNW 4.6 mph - N/A   Overcast
7:53 PM 73.0 °F - 55.9 °F 55% 29.88 in 10.0 mi NW 3.5 mph - N/A   Overcast
8:53 PM 72.0 °F - 55.9 °F 57% 29.91 in 10.0 mi North 4.6 mph - N/A   Overcast
9:53 PM 71.1 °F - 57.9 °F 63% 29.92 in 10.0 mi North 4.6 mph - N/A   Overcast
10:53 PM 69.1 °F - 57.9 °F 68% 29.92 in 10.0 mi North 4.6 mph - N/A   Overcast
11:53 PM 66.9 °F - 57.0 °F 70% 29.91 in 10.0 mi NW 4.6 mph - N/A   Scattered Clouds